Previsão horária em Abdaevo

Hoje, 30 Setembro, Quarta-feira

Tempo Temperatura Precipitação Vento Pressão Humidade
00:00 +10°C° 0 mm 1 m/s 758 mmHg 72%
01:00 +10°C° 0 mm 1 m/s 758 mmHg 72%
02:00 +10°C° 0 mm 1 m/s 758 mmHg 73%
03:00 +10°C° 0 mm 1 m/s 758 mmHg 74%
04:00 +9°C° 0 mm 1 m/s 758 mmHg 76%
05:00 +9°C° 0 mm 1 m/s 758 mmHg 78%
06:00 +9°C° 0 mm 1 m/s 758 mmHg 80%
07:00 +10°C° 0 mm 2 m/s 758 mmHg 77%
08:00 +12°C° 0 mm 2 m/s 758 mmHg 73%
09:00 +13°C° 0 mm 2 m/s 759 mmHg 69%
10:00 +14°C° 0 mm 2 m/s 758 mmHg 67%
11:00 +15°C° 0 mm 2 m/s 758 mmHg 65%
12:00 +17°C° 0 mm 2 m/s 758 mmHg 63%
13:00 +17°C° 0 mm 2 m/s 758 mmHg 64%
14:00 +17°C° 0 mm 2 m/s 758 mmHg 66%
15:00 +17°C° 0 mm 2 m/s 758 mmHg 71%
16:00 +16°C° 0 mm 2 m/s 758 mmHg 77%
17:00 +14°C° 0 mm 2 m/s 757 mmHg 83%
18:00 +13°C° 0 mm 2 m/s 757 mmHg 89%
19:00 +13°C° 0 mm 2 m/s 757 mmHg 90%
20:00 +12°C° 0 mm 2 m/s 757 mmHg 91%
21:00 +12°C° 0 mm 2 m/s 757 mmHg 91%
22:00 +10°C° 0 mm 2 m/s 757 mmHg 91%
23:00 +11°C° 0 mm 1 m/s 757 mmHg 92%

Amanhã, 1 Outubro, Quinta-feira

Tempo Temperatura Precipitação Vento Pressão Humidade
00:00 +11°C° 0 mm 1 m/s 757 mmHg 92%
01:00 +11°C° 0 mm 1 m/s 757 mmHg 92%
02:00 +11°C° 0 mm 1 m/s 758 mmHg 92%
03:00 +11°C° 0 mm 1 m/s 758 mmHg 92%
04:00 +11°C° 0 mm 1 m/s 758 mmHg 92%
05:00 +10°C° 0 mm 1 m/s 758 mmHg 93%
06:00 +10°C° 0 mm 1 m/s 758 mmHg 93%
07:00 +12°C° 0 mm 1 m/s 758 mmHg 87%
08:00 +13°C° 0 mm 1 m/s 758 mmHg 81%
09:00 +15°C° 0 mm 1 m/s 758 mmHg 75%
10:00 +16°C° 0 mm 1 m/s 758 mmHg 71%
11:00 +18°C° 0 mm 1 m/s 758 mmHg 68%
12:00 +17°C° 0 mm 2 m/s 757 mmHg 64%
13:00 +19°C° 0 mm 1 m/s 757 mmHg 63%
14:00 +19°C° 0 mm 1 m/s 757 mmHg 62%
15:00 +19°C° 0 mm 1 m/s 757 mmHg 61%
16:00 +16°C° 0 mm 1 m/s 757 mmHg 68%
17:00 +13°C° 0 mm 0 m/s 757 mmHg 74%
18:00 +12°C° 0 mm 0 m/s 757 mmHg 81%
19:00 +11°C° 0 mm 0 m/s 757 mmHg 82%
20:00 +11°C° 0 mm 0 m/s 757 mmHg 83%
21:00 +10°C° 0 mm 0 m/s 757 mmHg 85%
22:00 +10°C° 0 mm 0 m/s 757 mmHg 85%
23:00 +10°C° 0 mm 0 m/s 757 mmHg 86%

Depois de amanhã, 2 Outubro, Sexta-feira

Tempo Temperatura Precipitação Vento Pressão Humidade
00:00 +10°C° 0 mm 0 m/s 757 mmHg 86%
01:00 +10°C° 0 mm 0 m/s 757 mmHg 86%
02:00 +9°C° 0 mm 0 m/s 757 mmHg 87%
03:00 +9°C° 0 mm 0 m/s 757 mmHg 87%
04:00 +9°C° 0 mm 0 m/s 757 mmHg 88%
05:00 +9°C° 0 mm 0 m/s 757 mmHg 88%
06:00 +8°C° 0 mm 0 m/s 757 mmHg 89%
07:00 +10°C° 0 mm 0 m/s 757 mmHg 82%
08:00 +12°C° 0 mm 0 m/s 757 mmHg 76%
09:00 +14°C° 0 mm 0 m/s 757 mmHg 69%
10:00 +15°C° 0 mm 0 m/s 757 mmHg 65%
11:00 +16°C° 0 mm 0 m/s 757 mmHg 60%
12:00 +17°C° 0 mm 0 m/s 757 mmHg 56%
13:00 +17°C° 0 mm 0 m/s 757 mmHg 56%
14:00 +17°C° 0 mm 0 m/s 757 mmHg 56%
15:00 +17°C° 0 mm 0 m/s 757 mmHg 56%
16:00 +15°C° 0 mm 0 m/s 756 mmHg 63%
17:00 +13°C° 0 mm 0 m/s 756 mmHg 70%
18:00 +11°C° 0 mm 0 m/s 756 mmHg 77%
19:00 +11°C° 0 mm 0 m/s 756 mmHg 80%
20:00 +10°C° 0 mm 0 m/s 756 mmHg 82%
21:00 +10°C° 0 mm 0 m/s 756 mmHg 85%
22:00 +10°C° 0 mm 0 m/s 756 mmHg 86%
23:00 +9°C° 0 mm 0 m/s 756 mmHg 87%

3 Outubro, Sábado

Tempo Temperatura Precipitação Vento Pressão Humidade
00:00 +9°C° 0 mm 0 m/s 756 mmHg 88%
01:00 +9°C° 0 mm 0 m/s 756 mmHg 89%
02:00 +9°C° 0 mm 0 m/s 756 mmHg 89%
03:00 +9°C° 0 mm 1 m/s 756 mmHg 90%
04:00 +7°C° 0 mm 0 m/s 757 mmHg 88%
05:00 +8°C° 0 mm 1 m/s 757 mmHg 89%
06:00 +8°C° 0 mm 1 m/s 757 mmHg 90%
07:00 +9°C° 0 mm 1 m/s 757 mmHg 83%
08:00 +11°C° 0 mm 1 m/s 757 mmHg 76%
09:00 +13°C° 0 mm 1 m/s 757 mmHg 70%
10:00 +14°C° 0 mm 1 m/s 757 mmHg 65%
11:00 +16°C° 0 mm 1 m/s 757 mmHg 60%
12:00 +18°C° 0 mm 1 m/s 757 mmHg 54%
13:00 +18°C° 0 mm 1 m/s 757 mmHg 54%
14:00 +18°C° 0 mm 1 m/s 757 mmHg 54%
15:00 +18°C° 0 mm 1 m/s 757 mmHg 55%
16:00 +15°C° 0 mm 1 m/s 757 mmHg 62%
17:00 +13°C° 0 mm 1 m/s 757 mmHg 70%
18:00 +11°C° 0 mm 1 m/s 757 mmHg 78%
19:00 +11°C° 0 mm 1 m/s 757 mmHg 82%
20:00 +10°C° 0 mm 1 m/s 757 mmHg 85%
21:00 +9°C° 0 mm 2 m/s 757 mmHg 89%
22:00 +8°C° 0 mm 2 m/s 757 mmHg 90%
23:00 +8°C° 0 mm 2 m/s 757 mmHg 92%

4 Outubro, Domingo

Tempo Temperatura Precipitação Vento Pressão Humidade
00:00 +9°C° 0 mm 1 m/s 757 mmHg 93%
01:00 +8°C° 0 mm 1 m/s 757 mmHg 92%
02:00 +8°C° 0 mm 1 m/s 757 mmHg 92%
03:00 +8°C° 0 mm 1 m/s 757 mmHg 91%
04:00 +6°C° 0 mm 2 m/s 758 mmHg 92%
05:00 +6°C° 0 mm 2 m/s 758 mmHg 92%
06:00 +6°C° 0 mm 2 m/s 758 mmHg 93%
07:00 +7°C° 0 mm 2 m/s 758 mmHg 87%
08:00 +9°C° 0 mm 2 m/s 758 mmHg 81%
09:00 +10°C° 0 mm 2 m/s 758 mmHg 75%
10:00 +12°C° 0 mm 2 m/s 758 mmHg 70%
11:00 +13°C° 0 mm 2 m/s 758 mmHg 64%
12:00 +14°C° 0 mm 2 m/s 758 mmHg 58%
13:00 +14°C° 0 mm 2 m/s 758 mmHg 58%
14:00 +13°C° 0 mm 2 m/s 758 mmHg 58%
15:00 +13°C° 0 mm 2 m/s 758 mmHg 58%
16:00 +12°C° 0 mm 2 m/s 758 mmHg 62%
17:00 +10°C° 0 mm 2 m/s 758 mmHg 67%
18:00 +9°C° 0 mm 2 m/s 758 mmHg 71%
19:00 +8°C° 0 mm 2 m/s 758 mmHg 74%
20:00 +7°C° 0 mm 2 m/s 758 mmHg 77%
21:00 +6°C° 0 mm 2 m/s 758 mmHg 80%
22:00 +6°C° 0 mm 1 m/s 758 mmHg 80%
23:00 +6°C° 0 mm 1 m/s 758 mmHg 79%

5 Outubro, Segunda-feira

Tempo Temperatura Precipitação Vento Pressão Humidade
00:00 +5°C° 0 mm 1 m/s 758 mmHg 78%
01:00 +5°C° 0 mm 1 m/s 758 mmHg 80%
02:00 +5°C° 0 mm 1 m/s 758 mmHg 81%
03:00 +4°C° 0 mm 1 m/s 758 mmHg 82%
04:00 +4°C° 0 mm 1 m/s 758 mmHg 83%
05:00 +4°C° 0 mm 1 m/s 758 mmHg 85%
06:00 +4°C° 0 mm 1 m/s 758 mmHg 86%
07:00 +5°C° 0 mm 1 m/s 758 mmHg 80%
08:00 +7°C° 0 mm 1 m/s 758 mmHg 73%
09:00 +9°C° 0 mm 1 m/s 758 mmHg 66%
10:00 +10°C° 0 mm 1 m/s 758 mmHg 62%
11:00 +11°C° 0 mm 1 m/s 758 mmHg 58%
12:00 +12°C° 0 mm 1 m/s 758 mmHg 54%
13:00 +12°C° 0 mm 1 m/s 757 mmHg 54%
14:00 +12°C° 0 mm 1 m/s 757 mmHg 53%
15:00 +12°C° 0 mm 1 m/s 757 mmHg 53%
16:00 +10°C° 0 mm 1 m/s 756 mmHg 59%
17:00 +9°C° 0 mm 1 m/s 756 mmHg 65%
18:00 +7°C° 0 mm 1 m/s 756 mmHg 71%
19:00 +7°C° 0 mm 1 m/s 756 mmHg 73%
20:00 +6°C° 0 mm 1 m/s 756 mmHg 75%
21:00 +6°C° 0 mm 1 m/s 756 mmHg 76%
22:00 +6°C° 0 mm 1 m/s 756 mmHg 78%
23:00 +5°C° 0 mm 1 m/s 756 mmHg 79%
Mostrar mais